Back to Top

Language: 

My Weather Underground Personal Weather Station Historical Data with Graphs...

Delerius Weather Station Historical Data
Daily Summary for October 14, 2017 Units:  English    Metric   Both
« Previous Day
Next Day »
Daily Weekly Monthly Yearly Custom
  High: Low: Average:
Temperature: 71.1 °F 58.6 °F 64.7 °F
Dew Point: 61.7 °F 54.1 °F 58.5 °F
Humidity: 88 % 68 % 81 %
Wind Speed: 18.0 mph 0.0 mph 8.2 mph
Wind Gust: 32.0 mph - -
Wind:- - SW
Pressure: 30.13 in 30.01 in -
Precipitation: 0.00 in    
Historical Graphs
 
 
Tabular Data for October 14, 2017
Time Temperature Dew Point Pressure Wind Wind Speed Wind Gust Humidity Rainfall Rate (Hourly) solar Conditions
00:00 64.4 °F 60.1 °F 30.02 in WSW 9.0 mph 20.0 mph 86 % 0.00 in 0 W/m2
00:01 64.4 °F 60.1 °F 30.02 in WSW 9.0 mph 20.0 mph 86 % 0.00 in 0 W/m2
00:06 64.4 °F 60.1 °F 30.01 in SW 9.0 mph 19.0 mph 86 % 0.00 in 0 W/m2
00:11 64.6 °F 60.3 °F 30.01 in SW 10.0 mph 19.0 mph 86 % 0.00 in 0 W/m2
00:16 64.6 °F 60.3 °F 30.01 in WSW 10.0 mph 19.0 mph 86 % 0.00 in 0 W/m2
00:21 64.6 °F 60.3 °F 30.01 in WSW 11.0 mph 19.0 mph 86 % 0.00 in 0 W/m2
00:26 64.4 °F 60.1 °F 30.01 in WSW 11.0 mph 19.0 mph 86 % 0.00 in 0 W/m2
00:31 64.4 °F 60.1 °F 30.02 in WSW 11.0 mph 22.0 mph 86 % 0.00 in 0 W/m2
00:36 64.4 °F 60.1 °F 30.01 in WSW 13.0 mph 24.0 mph 86 % 0.00 in 0 W/m2
00:41 64.4 °F 59.8 °F 30.02 in WSW 13.0 mph 25.0 mph 85 % 0.00 in 0 W/m2
00:46 64.2 °F 59.6 °F 30.02 in WSW 13.0 mph 30.0 mph 85 % 0.00 in 0 W/m2
00:51 64.2 °F 59.9 °F 30.02 in WSW 13.0 mph 30.0 mph 86 % 0.00 in 0 W/m2
00:57 64.2 °F 59.9 °F 30.02 in WSW 13.0 mph 25.0 mph 86 % 0.00 in 0 W/m2
01:02 64.2 °F 59.9 °F 30.02 in WSW 14.0 mph 30.0 mph 86 % 0.00 in 0 W/m2
01:07 64.2 °F 59.9 °F 30.02 in WSW 15.0 mph 30.0 mph 86 % 0.00 in 0 W/m2
01:12 64.2 °F 59.6 °F 30.02 in WSW 15.0 mph 31.0 mph 85 % 0.00 in 0 W/m2
01:17 64.2 °F 59.6 °F 30.03 in WSW 13.0 mph 31.0 mph 85 % 0.00 in 0 W/m2
01:22 64.0 °F 59.4 °F 30.02 in WSW 12.0 mph 25.0 mph 85 % 0.00 in 0 W/m2
01:27 64.0 °F 59.4 °F 30.02 in WSW 12.0 mph 24.0 mph 85 % 0.00 in 0 W/m2
01:31 63.9 °F 59.3 °F 30.02 in WSW 12.0 mph 29.0 mph 85 % 0.00 in 0 W/m2
01:37 63.9 °F 59.3 °F 30.02 in WSW 15.0 mph 30.0 mph 85 % 0.00 in 0 W/m2
01:42 63.9 °F 59.3 °F 30.02 in WSW 17.0 mph 30.0 mph 85 % 0.00 in 0 W/m2
01:47 63.9 °F 59.3 °F 30.02 in WSW 18.0 mph 30.0 mph 85 % 0.00 in 0 W/m2
01:52 63.9 °F 58.9 °F 30.03 in WSW 18.0 mph 30.0 mph 84 % 0.00 in 0 W/m2
01:57 63.9 °F 58.9 °F 30.02 in WSW 17.0 mph 30.0 mph 84 % 0.00 in 0 W/m2
02:02 63.7 °F 58.8 °F 30.02 in WSW 13.0 mph 30.0 mph 84 % 0.00 in 0 W/m2
02:07 63.5 °F 58.6 °F 30.03 in WSW 13.0 mph 26.0 mph 84 % 0.00 in 0 W/m2
02:12 63.3 °F 58.1 °F 30.03 in WSW 14.0 mph 26.0 mph 83 % 0.00 in 0 W/m2
02:17 63.3 °F 58.1 °F 30.03 in WSW 14.0 mph 28.0 mph 83 % 0.00 in 0 W/m2
02:22 63.5 °F 57.9 °F 30.03 in WSW 17.0 mph 29.0 mph 82 % 0.00 in 0 W/m2
02:27 63.7 °F 58.1 °F 30.03 in WSW 17.0 mph 29.0 mph 82 % 0.00 in 0 W/m2
02:32 63.5 °F 57.9 °F 30.03 in WSW 16.0 mph 26.0 mph 82 % 0.00 in 0 W/m2
02:37 63.3 °F 57.7 °F 30.03 in WSW 15.0 mph 29.0 mph 82 % 0.00 in 0 W/m2
02:42 63.3 °F 57.7 °F 30.03 in WSW 15.0 mph 29.0 mph 82 % 0.00 in 0 W/m2
02:47 63.3 °F 57.7 °F 30.03 in WSW 13.0 mph 27.0 mph 82 % 0.00 in 0 W/m2
02:52 63.1 °F 57.6 °F 30.03 in WSW 11.0 mph 27.0 mph 82 % 0.00 in 0 W/m2
02:57 63.1 °F 57.6 °F 30.03 in SW 12.0 mph 23.0 mph 82 % 0.00 in 0 W/m2
03:02 63.3 °F 57.7 °F 30.03 in SW 13.0 mph 27.0 mph 82 % 0.00 in 0 W/m2
03:07 63.1 °F 57.6 °F 30.03 in WSW 12.0 mph 27.0 mph 82 % 0.00 in 0 W/m2
03:12 63.3 °F 57.7 °F 30.03 in WSW 13.0 mph 32.0 mph 82 % 0.00 in 0 W/m2
03:17 63.3 °F 57.7 °F 30.03 in WSW 13.0 mph 32.0 mph 82 % 0.00 in 0 W/m2
03:22 63.1 °F 57.6 °F 30.03 in WSW 10.0 mph 18.0 mph 82 % 0.00 in 0 W/m2
03:27 63.1 °F 57.9 °F 30.03 in SW 9.0 mph 16.0 mph 83 % 0.00 in 0 W/m2
03:32 63.0 °F 57.7 °F 30.03 in SW 10.0 mph 20.0 mph 83 % 0.00 in 0 W/m2
03:37 63.0 °F 57.7 °F 30.03 in SW 11.0 mph 24.0 mph 83 % 0.00 in 0 W/m2
03:42 63.0 °F 58.0 °F 30.03 in SW 10.0 mph 26.0 mph 84 % 0.00 in 0 W/m2
03:47 62.8 °F 57.9 °F 30.03 in WSW 10.0 mph 26.0 mph 84 % 0.00 in 0 W/m2
03:52 62.8 °F 58.2 °F 30.03 in WSW 10.0 mph 19.0 mph 85 % 0.00 in 0 W/m2
03:57 62.8 °F 58.2 °F 30.03 in WSW 9.0 mph 19.0 mph 85 % 0.00 in 0 W/m2
04:02 62.8 °F 58.2 °F 30.04 in West 10.0 mph 27.0 mph 85 % 0.00 in 0 W/m2
04:07 62.8 °F 58.2 °F 30.04 in West 10.0 mph 27.0 mph 85 % 0.00 in 0 W/m2
04:12 62.8 °F 58.2 °F 30.04 in WSW 8.0 mph 14.0 mph 85 % 0.00 in 0 W/m2
04:17 62.8 °F 58.2 °F 30.04 in WSW 9.0 mph 16.0 mph 85 % 0.00 in 0 W/m2
04:20 62.8 °F 58.2 °F 30.04 in WSW 10.0 mph 16.0 mph 85 % 0.00 in 0 W/m2
04:24 62.8 °F 58.2 °F 30.04 in WSW 9.0 mph 16.0 mph 85 % 0.00 in 0 W/m2
04:29 62.8 °F 58.2 °F 30.04 in WSW 7.0 mph 16.0 mph 85 % 0.00 in 0 W/m2
04:34 62.8 °F 58.2 °F 30.05 in WSW 7.0 mph 16.0 mph 85 % 0.00 in 0 W/m2
04:39 62.8 °F 58.2 °F 30.04 in WSW 8.0 mph 18.0 mph 85 % 0.00 in 0 W/m2
04:44 62.8 °F 58.2 °F 30.04 in WSW 9.0 mph 18.0 mph 85 % 0.00 in 0 W/m2
04:49 63.0 °F 58.4 °F 30.04 in WSW 10.0 mph 19.0 mph 85 % 0.00 in 0 W/m2
04:54 63.0 °F 58.4 °F 30.04 in WSW 10.0 mph 19.0 mph 85 % 0.00 in 0 W/m2
04:59 63.0 °F 58.7 °F 30.04 in WSW 9.0 mph 22.0 mph 86 % 0.00 in 0 W/m2
05:04 63.0 °F 58.4 °F 30.04 in WSW 10.0 mph 25.0 mph 85 % 0.00 in 0 W/m2
05:09 63.0 °F 58.7 °F 30.04 in WSW 10.0 mph 25.0 mph 86 % 0.00 in 0 W/m2
05:14 63.0 °F 58.7 °F 30.04 in WSW 10.0 mph 16.0 mph 86 % 0.00 in 0 W/m2
05:19 63.0 °F 58.7 °F 30.04 in WSW 11.0 mph 19.0 mph 86 % 0.00 in 0 W/m2
05:24 63.0 °F 58.7 °F 30.04 in WSW 11.0 mph 19.0 mph 86 % 0.00 in 0 W/m2
05:29 63.0 °F 58.7 °F 30.04 in WSW 11.0 mph 24.0 mph 86 % 0.00 in 0 W/m2
05:34 63.0 °F 58.7 °F 30.05 in WSW 10.0 mph 24.0 mph 86 % 0.00 in 0 W/m2
05:39 63.0 °F 58.7 °F 30.04 in WSW 11.0 mph 20.0 mph 86 % 0.00 in 0 W/m2
05:44 63.0 °F 58.7 °F 30.05 in WSW 11.0 mph 19.0 mph 86 % 0.00 in 0 W/m2
05:49 63.1 °F 58.9 °F 30.05 in WSW 11.0 mph 20.0 mph 86 % 0.00 in 0 W/m2
05:54 63.0 °F 58.7 °F 30.04 in WSW 10.0 mph 20.0 mph 86 % 0.00 in 0 W/m2
05:59 63.0 °F 58.7 °F 30.04 in WSW 9.0 mph 16.0 mph 86 % 0.00 in 0 W/m2
06:04 63.0 °F 58.7 °F 30.04 in SW 9.0 mph 21.0 mph 86 % 0.00 in 0 W/m2
06:09 63.0 °F 58.7 °F 30.04 in WSW 10.0 mph 21.0 mph 86 % 0.00 in 0 W/m2
06:14 63.0 °F 58.7 °F 30.04 in WSW 10.0 mph 19.0 mph 86 % 0.00 in 0 W/m2
06:19 63.0 °F 58.7 °F 30.04 in WSW 8.0 mph 19.0 mph 86 % 0.00 in 0 W/m2
06:24 63.0 °F 58.7 °F 30.04 in WSW 7.0 mph 14.0 mph 86 % 0.00 in 0 W/m2
06:29 62.8 °F 58.9 °F 30.04 in WSW 8.0 mph 15.0 mph 87 % 0.00 in 0 W/m2
06:34 63.0 °F 59.0 °F 30.04 in SW 11.0 mph 23.0 mph 87 % 0.00 in 0 W/m2
06:39 63.1 °F 58.9 °F 30.04 in SW 12.0 mph 23.0 mph 86 % 0.00 in 0 W/m2
06:44 63.1 °F 58.9 °F 30.04 in SW 11.0 mph 19.0 mph 86 % 0.00 in 0 W/m2
06:49 63.1 °F 58.9 °F 30.05 in SW 10.0 mph 21.0 mph 86 % 0.00 in 0 W/m2
06:54 63.1 °F 58.9 °F 30.05 in WSW 9.0 mph 21.0 mph 86 % 0.00 in 0 W/m2
06:59 63.1 °F 58.9 °F 30.05 in WSW 9.0 mph 19.0 mph 86 % 0.00 in 0 W/m2
07:04 63.1 °F 58.9 °F 30.05 in WSW 10.0 mph 21.0 mph 86 % 0.00 in 0 W/m2
07:10 63.1 °F 58.9 °F 30.05 in WSW 10.0 mph 21.0 mph 86 % 0.00 in 0 W/m2
07:15 63.1 °F 58.9 °F 30.05 in WSW 11.0 mph 20.0 mph 86 % 0.00 in 0 W/m2
07:20 63.1 °F 58.9 °F 30.05 in WSW 11.0 mph 23.0 mph 86 % 0.00 in 7 W/m2
07:25 63.0 °F 59.0 °F 30.05 in WSW 10.0 mph 23.0 mph 87 % 0.00 in 9 W/m2
07:30 63.0 °F 59.0 °F 30.05 in WSW 11.0 mph 23.0 mph 87 % 0.00 in 9 W/m2
07:35 63.0 °F 59.0 °F 30.05 in WSW 11.0 mph 22.0 mph 87 % 0.00 in 7 W/m2
07:40 63.0 °F 59.0 °F 30.05 in WSW 12.0 mph 21.0 mph 87 % 0.00 in 12 W/m2
07:45 63.0 °F 59.0 °F 30.06 in WSW 13.0 mph 24.0 mph 87 % 0.00 in 21 W/m2
07:50 63.0 °F 59.0 °F 30.06 in WSW 12.0 mph 24.0 mph 87 % 0.00 in 28 W/m2
07:55 62.8 °F 58.9 °F 30.06 in WSW 11.0 mph 21.0 mph 87 % 0.00 in 35 W/m2
08:00 63.0 °F 59.3 °F 30.06 in WSW 12.0 mph 21.0 mph 88 % 0.00 in 40 W/m2
08:05 62.8 °F 59.2 °F 30.06 in SW 12.0 mph 21.0 mph 88 % 0.00 in 49 W/m2
08:10 62.8 °F 59.2 °F 30.07 in WSW 11.0 mph 21.0 mph 88 % 0.00 in 56 W/m2
08:15 62.8 °F 59.2 °F 30.07 in WSW 10.0 mph 19.0 mph 88 % 0.00 in 67 W/m2
08:20 62.8 °F 59.2 °F 30.07 in WSW 9.0 mph 19.0 mph 88 % 0.00 in 83 W/m2
08:25 63.0 °F 59.3 °F 30.07 in WSW 11.0 mph 23.0 mph 88 % 0.00 in 67 W/m2
08:30 63.1 °F 59.5 °F 30.07 in WSW 12.0 mph 23.0 mph 88 % 0.00 in 130 W/m2
08:35 63.3 °F 59.7 °F 30.07 in WSW 11.0 mph 20.0 mph 88 % 0.00 in 125 W/m2
08:40 63.5 °F 59.6 °F 30.08 in WSW 12.0 mph 20.0 mph 87 % 0.00 in 88 W/m2
08:45 63.7 °F 59.7 °F 30.08 in WSW 11.0 mph 18.0 mph 87 % 0.00 in 109 W/m2
08:50 63.5 °F 59.6 °F 30.07 in WSW 11.0 mph 18.0 mph 87 % 0.00 in 160 W/m2
08:55 63.7 °F 59.7 °F 30.07 in WSW 11.0 mph 20.0 mph 87 % 0.00 in 91 W/m2
09:00 63.5 °F 59.6 °F 30.07 in WSW 11.0 mph 21.0 mph 87 % 0.00 in 158 W/m2
09:05 63.7 °F 59.7 °F 30.08 in WSW 12.0 mph 21.0 mph 87 % 0.00 in 204 W/m2
09:10 63.9 °F 59.9 °F 30.08 in WSW 12.0 mph 22.0 mph 87 % 0.00 in 316 W/m2
09:15 64.0 °F 60.1 °F 30.08 in WSW 12.0 mph 22.0 mph 87 % 0.00 in 160 W/m2
09:20 64.2 °F 60.3 °F 30.08 in WSW 11.0 mph 20.0 mph 87 % 0.00 in 172 W/m2
09:25 64.2 °F 59.9 °F 30.08 in SW 11.0 mph 20.0 mph 86 % 0.00 in 169 W/m2
09:30 64.6 °F 60.6 °F 30.09 in WSW 12.0 mph 21.0 mph 87 % 0.00 in 381 W/m2
09:35 64.9 °F 60.3 °F 30.09 in WSW 13.0 mph 26.0 mph 85 % 0.00 in 285 W/m2
09:40 65.1 °F 60.5 °F 30.09 in WSW 13.0 mph 26.0 mph 85 % 0.00 in 162 W/m2
09:45 65.1 °F 60.2 °F 30.09 in WSW 12.0 mph 23.0 mph 84 % 0.00 in 165 W/m2
09:50 65.1 °F 60.2 °F 30.09 in WSW 11.0 mph 23.0 mph 84 % 0.00 in 172 W/m2
09:55 65.1 °F 60.2 °F 30.09 in WSW 10.0 mph 19.0 mph 84 % 0.00 in 192 W/m2
10:00 65.1 °F 60.2 °F 30.09 in WSW 10.0 mph 19.0 mph 84 % 0.00 in 153 W/m2
10:05 65.3 °F 60.3 °F 30.09 in SW 10.0 mph 18.0 mph 84 % 0.00 in 149 W/m2
10:10 65.5 °F 60.2 °F 30.10 in SW 12.0 mph 26.0 mph 83 % 0.00 in 193 W/m2
10:15 65.5 °F 60.2 °F 30.09 in SW 14.0 mph 26.0 mph 83 % 0.00 in 232 W/m2
10:20 65.7 °F 60.4 °F 30.09 in SW 12.0 mph 20.0 mph 83 % 0.00 in 186 W/m2
10:25 65.7 °F 60.0 °F 30.09 in SW 11.0 mph 20.0 mph 82 % 0.00 in 209 W/m2
10:30 65.8 °F 60.2 °F 30.09 in SW 11.0 mph 20.0 mph 82 % 0.00 in 517 W/m2
10:35 66.6 °F 60.9 °F 30.09 in SW 10.0 mph 20.0 mph 82 % 0.00 in 397 W/m2
10:40 66.6 °F 60.2 °F 30.09 in SW 12.0 mph 27.0 mph 80 % 0.00 in 220 W/m2
10:45 66.6 °F 60.2 °F 30.09 in SW 12.0 mph 27.0 mph 80 % 0.00 in 526 W/m2
10:50 66.9 °F 60.5 °F 30.09 in WSW 9.0 mph 16.0 mph 80 % 0.00 in 288 W/m2
10:55 67.3 °F 60.5 °F 30.10 in SW 7.0 mph 15.0 mph 79 % 0.00 in 417 W/m2
11:00 67.5 °F 60.4 °F 30.10 in SW 6.0 mph 15.0 mph 78 % 0.00 in 504 W/m2
11:05 67.8 °F 60.7 °F 30.10 in SW 5.0 mph 12.0 mph 78 % 0.00 in 387 W/m2
11:10 67.8 °F 60.3 °F 30.10 in SW 7.0 mph 13.0 mph 77 % 0.00 in 413 W/m2
11:15 68.2 °F 60.7 °F 30.10 in SW 6.0 mph 13.0 mph 77 % 0.00 in 294 W/m2
11:20 68.4 °F 60.5 °F 30.10 in SW 8.0 mph 15.0 mph 76 % 0.00 in 260 W/m2
11:25 68.4 °F 60.5 °F 30.10 in SW 9.0 mph 15.0 mph 76 % 0.00 in 294 W/m2
11:30 68.4 °F 60.5 °F 30.11 in WSW 9.0 mph 15.0 mph 76 % 0.00 in 264 W/m2
11:35 68.4 °F 60.1 °F 30.10 in WSW 8.0 mph 15.0 mph 75 % 0.00 in 353 W/m2
11:40 68.5 °F 59.9 °F 30.11 in WSW 9.0 mph 22.0 mph 74 % 0.00 in 304 W/m2
11:46 69.1 °F 60.8 °F 30.11 in WSW 10.0 mph 22.0 mph 75 % 0.00 in 577 W/m2
11:51 69.3 °F 61.7 °F 30.11 in WSW 8.0 mph 15.0 mph 77 % 0.00 in 524 W/m2
11:56 68.5 °F 60.7 °F 30.10 in WSW 8.0 mph 15.0 mph 76 % 0.00 in 596 W/m2
12:01 69.1 °F 60.8 °F 30.11 in WSW 10.0 mph 16.0 mph 75 % 0.00 in 552 W/m2
12:06 69.4 °F 60.8 °F 30.11 in WSW 10.0 mph 16.0 mph 74 % 0.00 in 425 W/m2
12:11 69.6 °F 60.6 °F 30.11 in WSW 9.0 mph 14.0 mph 73 % 0.00 in 251 W/m2
12:16 69.4 °F 60.0 °F 30.10 in WSW 9.0 mph 18.0 mph 72 % 0.00 in 255 W/m2
12:21 69.3 °F 60.2 °F 30.11 in WSW 10.0 mph 20.0 mph 73 % 0.00 in 237 W/m2
12:26 69.3 °F 60.2 °F 30.10 in West 9.0 mph 20.0 mph 73 % 0.00 in 237 W/m2
12:31 68.9 °F 59.9 °F 30.10 in WSW 10.0 mph 21.0 mph 73 % 0.00 in 206 W/m2
12:36 68.5 °F 59.9 °F 30.10 in SW 10.0 mph 21.0 mph 74 % 0.00 in 207 W/m2
12:41 68.4 °F 59.7 °F 30.10 in SW 9.0 mph 21.0 mph 74 % 0.00 in 202 W/m2
12:46 68.4 °F 60.1 °F 30.10 in SW 9.0 mph 16.0 mph 75 % 0.00 in 519 W/m2
12:51 68.5 °F 59.9 °F 30.11 in SW 9.0 mph 18.0 mph 74 % 0.00 in 195 W/m2
12:56 68.5 °F 59.5 °F 30.11 in SW 9.0 mph 18.0 mph 73 % 0.00 in 153 W/m2
13:01 68.4 °F 59.7 °F 30.11 in SW 8.0 mph 14.0 mph 74 % 0.00 in 188 W/m2
13:06 68.2 °F 59.6 °F 30.10 in SW 8.0 mph 16.0 mph 74 % 0.00 in 142 W/m2
13:11 67.8 °F 59.6 °F 30.10 in SW 7.0 mph 16.0 mph 75 % 0.00 in 127 W/m2
13:16 67.8 °F 59.6 °F 30.10 in SW 5.0 mph 10.0 mph 75 % 0.00 in 144 W/m2
13:21 67.8 °F 59.6 °F 30.11 in SW 6.0 mph 19.0 mph 75 % 0.00 in 132 W/m2
13:26 67.8 °F 59.6 °F 30.10 in SW 7.0 mph 19.0 mph 75 % 0.00 in 178 W/m2
13:31 67.8 °F 59.6 °F 30.11 in SW 6.0 mph 12.0 mph 75 % 0.00 in 185 W/m2
13:36 68.2 °F 59.6 °F 30.11 in SW 8.0 mph 18.0 mph 74 % 0.00 in 181 W/m2
13:41 68.2 °F 60.0 °F 30.11 in SW 7.0 mph 18.0 mph 75 % 0.00 in 209 W/m2
13:46 68.4 °F 59.7 °F 30.11 in SW 6.0 mph 12.0 mph 74 % 0.00 in 193 W/m2
13:51 68.5 °F 59.5 °F 30.11 in WSW 7.0 mph 12.0 mph 73 % 0.00 in 153 W/m2
13:56 68.7 °F 59.7 °F 30.11 in WSW 8.0 mph 21.0 mph 73 % 0.00 in 128 W/m2
14:01 68.7 °F 59.7 °F 30.11 in SW 8.0 mph 21.0 mph 73 % 0.00 in 146 W/m2
14:06 68.5 °F 59.5 °F 30.11 in WSW 8.0 mph 16.0 mph 73 % 0.00 in 120 W/m2
14:11 68.5 °F 59.5 °F 30.11 in WSW 8.0 mph 16.0 mph 73 % 0.00 in 114 W/m2
14:16 68.5 °F 59.2 °F 30.11 in WSW 8.0 mph 22.0 mph 72 % 0.00 in 118 W/m2
14:21 68.5 °F 59.2 °F 30.11 in WSW 11.0 mph 22.0 mph 72 % 0.00 in 104 W/m2
14:26 68.5 °F 59.2 °F 30.11 in WSW 11.0 mph 21.0 mph 72 % 0.00 in 350 W/m2
14:31 68.9 °F 59.5 °F 30.12 in SW 10.0 mph 19.0 mph 72 % 0.00 in 397 W/m2
14:36 69.4 °F 60.0 °F 30.11 in SW 10.0 mph 19.0 mph 72 % 0.00 in 526 W/m2
14:41 70.2 °F 59.9 °F 30.11 in WSW 9.0 mph 18.0 mph 70 % 0.00 in 499 W/m2
14:46 70.3 °F 60.1 °F 30.12 in WSW 9.0 mph 14.0 mph 70 % 0.00 in 506 W/m2
14:51 70.9 °F 60.6 °F 30.11 in WSW 8.0 mph 14.0 mph 70 % 0.00 in 503 W/m2
14:56 71.1 °F 60.0 °F 30.11 in WSW 8.0 mph 14.0 mph 68 % 0.00 in 515 W/m2
15:01 71.1 °F 60.0 °F 30.12 in SW 9.0 mph 16.0 mph 68 % 0.00 in 388 W/m2
15:07 71.1 °F 60.4 °F 30.12 in SW 8.0 mph 16.0 mph 69 % 0.00 in 473 W/m2
15:12 70.9 °F 59.8 °F 30.12 in SW 8.0 mph 20.0 mph 68 % 0.00 in 274 W/m2
15:17 70.9 °F 60.2 °F 30.12 in SW 10.0 mph 20.0 mph 69 % 0.00 in 424 W/m2
15:22 70.9 °F 60.2 °F 30.12 in SW 10.0 mph 18.0 mph 69 % 0.00 in 401 W/m2
15:27 70.9 °F 60.2 °F 30.12 in SW 9.0 mph 16.0 mph 69 % 0.00 in 390 W/m2
15:32 70.9 °F 60.2 °F 30.12 in SW 8.0 mph 15.0 mph 69 % 0.00 in 130 W/m2
15:37 70.3 °F 59.7 °F 30.13 in SW 9.0 mph 15.0 mph 69 % 0.00 in 278 W/m2
15:42 70.3 °F 59.7 °F 30.13 in SW 8.0 mph 14.0 mph 69 % 0.00 in 390 W/m2
15:47 70.3 °F 59.7 °F 30.13 in SW 8.0 mph 19.0 mph 69 % 0.00 in 332 W/m2
15:52 70.3 °F 59.7 °F 30.12 in SW 9.0 mph 19.0 mph 69 % 0.00 in 325 W/m2
15:57 70.5 °F 59.4 °F 30.12 in WSW 9.0 mph 16.0 mph 68 % 0.00 in 225 W/m2
16:02 70.3 °F 59.3 °F 30.12 in WSW 10.0 mph 16.0 mph 68 % 0.00 in 276 W/m2
16:07 70.0 °F 59.3 °F 30.12 in SW 8.0 mph 15.0 mph 69 % 0.00 in 269 W/m2
16:12 70.0 °F 59.3 °F 30.12 in SW 8.0 mph 12.0 mph 69 % 0.00 in 251 W/m2
16:17 70.0 °F 58.9 °F 30.12 in WSW 8.0 mph 18.0 mph 68 % 0.00 in 111 W/m2
16:22 69.8 °F 59.2 °F 30.12 in WSW 6.0 mph 18.0 mph 69 % 0.00 in 244 W/m2
16:27 69.8 °F 59.2 °F 30.12 in WSW 4.0 mph 10.0 mph 69 % 0.00 in 202 W/m2
16:32 69.8 °F 59.2 °F 30.12 in WSW 5.0 mph 10.0 mph 69 % 0.00 in 97 W/m2
16:37 69.6 °F 59.0 °F 30.12 in WSW 5.0 mph 10.0 mph 69 % 0.00 in 98 W/m2
16:42 69.4 °F 58.8 °F 30.12 in SW 5.0 mph 10.0 mph 69 % 0.00 in 88 W/m2
16:47 69.3 °F 58.7 °F 30.12 in SSW 5.0 mph 10.0 mph 69 % 0.00 in 56 W/m2
16:52 69.1 °F 58.9 °F 30.12 in SSW 5.0 mph 10.0 mph 70 % 0.00 in 53 W/m2
16:57 68.9 °F 58.7 °F 30.12 in SSW 6.0 mph 11.0 mph 70 % 0.00 in 95 W/m2
17:02 68.5 °F 58.4 °F 30.12 in SW 7.0 mph 18.0 mph 70 % 0.00 in 70 W/m2
17:07 68.4 °F 58.2 °F 30.12 in WSW 9.0 mph 18.0 mph 70 % 0.00 in 67 W/m2
17:13 68.2 °F 58.0 °F 30.12 in WSW 7.0 mph 15.0 mph 70 % 0.00 in 65 W/m2
17:18 68.2 °F 58.4 °F 30.12 in SW 6.0 mph 11.0 mph 71 % 0.00 in 76 W/m2
17:23 67.8 °F 58.1 °F 30.12 in SSW 7.0 mph 11.0 mph 71 % 0.00 in 42 W/m2
17:28 67.5 °F 57.7 °F 30.12 in SSW 7.0 mph 13.0 mph 71 % 0.00 in 28 W/m2
17:33 67.5 °F 57.7 °F 30.12 in SSW 5.0 mph 13.0 mph 71 % 0.00 in 25 W/m2
17:38 67.3 °F 57.9 °F 30.12 in SW 4.0 mph 8.0 mph 72 % 0.00 in 25 W/m2
17:43 66.9 °F 58.0 °F 30.12 in SW 5.0 mph 9.0 mph 73 % 0.00 in 25 W/m2
17:48 66.7 °F 57.8 °F 30.12 in SW 5.0 mph 9.0 mph 73 % 0.00 in 18 W/m2
17:53 66.6 °F 57.6 °F 30.12 in SW 5.0 mph 9.0 mph 73 % 0.00 in 12 W/m2
17:58 66.4 °F 57.8 °F 30.12 in SW 5.0 mph 10.0 mph 74 % 0.00 in 9 W/m2
18:03 66.0 °F 57.5 °F 30.12 in SW 6.0 mph 12.0 mph 74 % 0.00 in 7 W/m2
18:08 65.8 °F 57.7 °F 30.12 in WSW 6.0 mph 12.0 mph 75 % 0.00 in 0 W/m2
18:13 65.5 °F 57.3 °F 30.12 in SW 6.0 mph 11.0 mph 75 % 0.00 in 0 W/m2
18:18 65.3 °F 57.5 °F 30.12 in SW 7.0 mph 12.0 mph 76 % 0.00 in 0 W/m2
18:23 65.1 °F 57.4 °F 30.12 in SW 6.0 mph 12.0 mph 76 % 0.00 in 0 W/m2
18:28 64.9 °F 57.2 °F 30.13 in SSW 3.0 mph 9.0 mph 76 % 0.00 in 0 W/m2
18:33 64.9 °F 57.6 °F 30.13 in SSW 1.0 mph 5.0 mph 77 % 0.00 in 0 W/m2
18:38 64.8 °F 57.4 °F 30.13 in SSW 2.0 mph 5.0 mph 77 % 0.00 in 0 W/m2
18:39 64.8 °F 57.4 °F 30.13 in SSW 3.0 mph 6.0 mph 77 % 0.00 in 0 W/m2
18:45 64.6 °F 57.2 °F 30.12 in SSW 4.0 mph 8.0 mph 77 % 0.00 in 0 W/m2
18:50 64.2 °F 57.2 °F 30.13 in SSW 5.0 mph 8.0 mph 78 % 0.00 in 0 W/m2
18:55 63.9 °F 57.2 °F 30.13 in SW 5.0 mph 8.0 mph 79 % 0.00 in 0 W/m2
19:00 63.7 °F 57.0 °F 30.13 in SW 5.0 mph 11.0 mph 79 % 0.00 in 0 W/m2
19:05 63.7 °F 57.0 °F 30.13 in SW 4.0 mph 11.0 mph 79 % 0.00 in 0 W/m2
19:10 63.7 °F 57.0 °F 30.13 in SW 1.0 mph 11.0 mph 79 % 0.00 in 0 W/m2
19:15 63.3 °F 56.7 °F 30.12 in South 1.0 mph 7.0 mph 79 % 0.00 in 0 W/m2
19:20 63.1 °F 56.9 °F 30.12 in SSW 2.0 mph 7.0 mph 80 % 0.00 in 0 W/m2
19:25 63.0 °F 56.7 °F 30.12 in SSW 3.0 mph 10.0 mph 80 % 0.00 in 0 W/m2
19:30 63.0 °F 56.7 °F 30.12 in SSW 4.0 mph 10.0 mph 80 % 0.00 in 0 W/m2
19:35 62.8 °F 56.2 °F 30.12 in SSW 3.0 mph 8.0 mph 79 % 0.00 in 0 W/m2
19:40 62.6 °F 56.0 °F 30.12 in SW 2.0 mph 8.0 mph 79 % 0.00 in 0 W/m2
19:45 62.4 °F 56.2 °F 30.13 in Calm   4.0 mph 80 % 0.00 in 0 W/m2
19:50 62.1 °F 55.8 °F 30.12 in Calm   4.0 mph 80 % 0.00 in 0 W/m2
19:55 61.9 °F 56.0 °F 30.12 in Calm   2.0 mph 81 % 0.00 in 0 W/m2
20:00 61.5 °F 55.6 °F 30.12 in East 1.0 mph 5.0 mph 81 % 0.00 in 0 W/m2
20:05 61.3 °F 55.8 °F 30.12 in East 2.0 mph 5.0 mph 82 % 0.00 in 0 W/m2
20:10 61.3 °F 55.8 °F 30.12 in SE 3.0 mph 8.0 mph 82 % 0.00 in 0 W/m2
20:15 61.3 °F 55.8 °F 30.12 in South 4.0 mph 9.0 mph 82 % 0.00 in 0 W/m2
20:20 61.5 °F 56.0 °F 30.12 in SSW 5.0 mph 9.0 mph 82 % 0.00 in 0 W/m2
20:25 61.7 °F 56.1 °F 30.12 in SSW 4.0 mph 9.0 mph 82 % 0.00 in 0 W/m2
20:30 61.7 °F 56.1 °F 30.12 in SSW 3.0 mph 11.0 mph 82 % 0.00 in 0 W/m2
20:35 61.9 °F 56.3 °F 30.12 in SSW 4.0 mph 11.0 mph 82 % 0.00 in 0 W/m2
20:40 62.1 °F 56.2 °F 30.12 in SSW 2.0 mph 9.0 mph 81 % 0.00 in 0 W/m2
20:45 62.1 °F 56.2 °F 30.11 in SW 1.0 mph 4.0 mph 81 % 0.00 in 0 W/m2
20:50 61.9 °F 56.0 °F 30.11 in SSW 1.0 mph 5.0 mph 81 % 0.00 in 0 W/m2
20:56 61.9 °F 56.3 °F 30.11 in SSE 1.0 mph 5.0 mph 82 % 0.00 in 0 W/m2
21:01 61.9 °F 56.3 °F 30.11 in SSE 1.0 mph 5.0 mph 82 % 0.00 in 0 W/m2
21:06 61.9 °F 56.3 °F 30.11 in SSE 1.0 mph 5.0 mph 82 % 0.00 in 0 W/m2
21:11 61.7 °F 56.1 °F 30.11 in SSE 1.0 mph 4.0 mph 82 % 0.00 in 0 W/m2
21:16 61.5 °F 56.0 °F 30.11 in SSE 1.0 mph 4.0 mph 82 % 0.00 in 0 W/m2
21:21 61.5 °F 56.0 °F 30.10 in SSE 1.0 mph 4.0 mph 82 % 0.00 in 0 W/m2
21:26 61.2 °F 56.0 °F 30.11 in Calm   2.0 mph 83 % 0.00 in 0 W/m2
21:31 61.0 °F 55.8 °F 30.10 in Calm   2.0 mph 83 % 0.00 in 0 W/m2
21:36 60.8 °F 55.9 °F 30.10 in Calm   4.0 mph 84 % 0.00 in 0 W/m2
21:41 60.4 °F 55.6 °F 30.10 in SSE 1.0 mph 4.0 mph 84 % 0.00 in 0 W/m2
21:46 60.3 °F 55.7 °F 30.10 in SSE 1.0 mph 5.0 mph 85 % 0.00 in 0 W/m2
21:51 60.1 °F 55.6 °F 30.10 in SSE 3.0 mph 6.0 mph 85 % 0.00 in 0 W/m2
21:56 59.7 °F 55.5 °F 30.10 in SSE 3.0 mph 6.0 mph 86 % 0.00 in 0 W/m2
22:01 59.5 °F 55.3 °F 30.10 in South 3.0 mph 6.0 mph 86 % 0.00 in 0 W/m2
22:06 59.5 °F 55.7 °F 30.09 in SSE 3.0 mph 6.0 mph 87 % 0.00 in 0 W/m2
22:11 59.5 °F 55.7 °F 30.09 in SSE 4.0 mph 8.0 mph 87 % 0.00 in 0 W/m2
22:16 59.7 °F 55.8 °F 30.09 in SSE 5.0 mph 8.0 mph 87 % 0.00 in 0 W/m2
22:21 59.5 °F 55.7 °F 30.09 in SSE 4.0 mph 8.0 mph 87 % 0.00 in 0 W/m2
22:26 59.5 °F 55.7 °F 30.09 in SSE 3.0 mph 6.0 mph 87 % 0.00 in 0 W/m2
22:31 59.4 °F 55.8 °F 30.09 in South 2.0 mph 6.0 mph 88 % 0.00 in 0 W/m2
22:36 59.4 °F 55.8 °F 30.09 in South 1.0 mph 5.0 mph 88 % 0.00 in 0 W/m2
22:41 59.4 °F 55.8 °F 30.09 in South 1.0 mph 5.0 mph 88 % 0.00 in 0 W/m2
22:46 59.2 °F 55.6 °F 30.09 in Calm   3.0 mph 88 % 0.00 in 0 W/m2
22:51 59.0 °F 55.4 °F 30.09 in Calm   2.0 mph 88 % 0.00 in 0 W/m2
22:56 59.0 °F 55.4 °F 30.09 in SW 2.0 mph 12.0 mph 88 % 0.00 in 0 W/m2
23:01 59.2 °F 55.6 °F 30.09 in SW 4.0 mph 12.0 mph 88 % 0.00 in 0 W/m2
23:06 59.2 °F 55.3 °F 30.09 in SSW 4.0 mph 8.0 mph 87 % 0.00 in 0 W/m2
23:11 59.4 °F 55.5 °F 30.09 in SSW 3.0 mph 8.0 mph 87 % 0.00 in 0 W/m2
23:16 59.2 °F 55.0 °F 30.08 in SSW 3.0 mph 8.0 mph 86 % 0.00 in 0 W/m2
23:21 59.2 °F 55.0 °F 30.08 in SSW 2.0 mph 8.0 mph 86 % 0.00 in 0 W/m2
23:26 59.0 °F 54.8 °F 30.08 in SSW 4.0 mph 13.0 mph 86 % 0.00 in 0 W/m2
23:31 59.0 °F 54.8 °F 30.08 in SW 7.0 mph 15.0 mph 86 % 0.00 in 0 W/m2
23:36 59.0 °F 54.5 °F 30.07 in SW 8.0 mph 15.0 mph 85 % 0.00 in 0 W/m2
23:41 59.0 °F 54.5 °F 30.07 in SW 8.0 mph 14.0 mph 85 % 0.00 in 0 W/m2
23:46 58.8 °F 54.3 °F 30.07 in SSW 6.0 mph 10.0 mph 85 % 0.00 in 0 W/m2
23:51 58.8 °F 54.3 °F 30.08 in SSW 5.0 mph 11.0 mph 85 % 0.00 in 0 W/m2
23:56 58.6 °F 54.1 °F 30.08 in SSW 6.0 mph 12.0 mph 85 % 0.00 in 0 W/m2
Delerius-Weather
Compliments of Weather Underground - 2.25 mb

Data updates at regular intervals.